When you browse on this site, cookies collect data to enhance your experience and personalize the content and advertising you see.
Visit our Privacy Policy to learn more. By continuing to use the site, you agree to this use of cookies and data.
EN

Hourly Weather Pechyshche

Today, 3 August, Monday

Time Temperature Precipitation Wind Pressure Humidity
00:00 +13°C° 0 mm 2 mps 745 mmHg 93%
01:00 +13°C° 0 mm 2 mps 746 mmHg 94%
02:00 +13°C° 0 mm 2 mps 746 mmHg 95%
03:00 +12°C° 0 mm 2 mps 746 mmHg 95%
04:00 +12°C° 0 mm 1 mps 746 mmHg 95%
05:00 +12°C° 0 mm 1 mps 746 mmHg 95%
06:00 +14°C° 0 mm 1 mps 747 mmHg 87%
07:00 +16°C° 0 mm 1 mps 747 mmHg 80%
08:00 +19°C° 0 mm 1 mps 747 mmHg 72%
09:00 +21°C° 0 mm 1 mps 747 mmHg 66%
10:00 +22°C° 0 mm 1 mps 748 mmHg 59%
11:00 +22°C° 0 mm 0 mps 748 mmHg 53%
12:00 +22°C° 0 mm 0 mps 748 mmHg 50%
13:00 +23°C° 0 mm 0 mps 747 mmHg 48%
14:00 +24°C° 0 mm 0 mps 747 mmHg 46%
15:00 +23°C° 0 mm 0 mps 747 mmHg 47%
16:00 +23°C° 0 mm 0 mps 747 mmHg 48%
17:00 +23°C° 0 mm 0 mps 747 mmHg 49%
18:00 +23°C° 0 mm 1 mps 747 mmHg 54%
19:00 +21°C° 0 mm 1 mps 747 mmHg 59%
20:00 +19°C° 0 mm 1 mps 747 mmHg 64%
21:00 +19°C° 0 mm 1 mps 747 mmHg 65%
22:00 +17°C° 0 mm 2 mps 747 mmHg 66%
23:00 +17°C° 0 mm 2 mps 747 mmHg 67%

Tomorrow, 4 August, Tuesday

Time Temperature Precipitation Wind Pressure Humidity
00:00 +16°C° 0 mm 2 mps 748 mmHg 69%
01:00 +16°C° 0 mm 2 mps 748 mmHg 71%
02:00 +15°C° 0 mm 2 mps 748 mmHg 72%
03:00 +15°C° 0 mm 2 mps 748 mmHg 75%
04:00 +15°C° 0 mm 2 mps 748 mmHg 77%
05:00 +15°C° 0 mm 2 mps 748 mmHg 80%
06:00 +17°C° 0 mm 2 mps 748 mmHg 74%
07:00 +19°C° 0 mm 3 mps 748 mmHg 69%
08:00 +21°C° 0 mm 3 mps 748 mmHg 64%
09:00 +22°C° 0 mm 3 mps 748 mmHg 59%
10:00 +24°C° 0 mm 3 mps 748 mmHg 54%
11:00 +26°C° 0 mm 3 mps 748 mmHg 49%
12:00 +26°C° 0 mm 3 mps 748 mmHg 47%
13:00 +27°C° 0 mm 2 mps 748 mmHg 45%
14:00 +27°C° 0 mm 2 mps 748 mmHg 43%
15:00 +27°C° 0 mm 2 mps 748 mmHg 46%
16:00 +27°C° 0 mm 2 mps 748 mmHg 49%
17:00 +26°C° 0 mm 2 mps 748 mmHg 52%
18:00 +24°C° 0 mm 2 mps 748 mmHg 56%
19:00 +23°C° 0 mm 2 mps 748 mmHg 59%
20:00 +20°C° 0 mm 3 mps 748 mmHg 63%
21:00 +19°C° 0 mm 3 mps 748 mmHg 65%
22:00 +18°C° 0 mm 3 mps 748 mmHg 67%
23:00 +17°C° 0 mm 2 mps 748 mmHg 69%

Day after tomorrow, 5 August, Wednesday

Time Temperature Precipitation Wind Pressure Humidity
00:00 +17°C° 0 mm 2 mps 748 mmHg 71%
01:00 +16°C° 0 mm 2 mps 748 mmHg 72%
02:00 +16°C° 0 mm 2 mps 748 mmHg 74%
03:00 +16°C° 0 mm 2 mps 748 mmHg 75%
04:00 +16°C° 0 mm 2 mps 748 mmHg 77%
05:00 +15°C° 0 mm 2 mps 748 mmHg 79%
06:00 +17°C° 0 mm 2 mps 749 mmHg 73%
07:00 +20°C° 0 mm 2 mps 749 mmHg 67%
08:00 +23°C° 0 mm 2 mps 749 mmHg 60%
09:00 +24°C° 0 mm 2 mps 749 mmHg 56%
10:00 +25°C° 0 mm 3 mps 749 mmHg 51%
11:00 +27°C° 0 mm 3 mps 749 mmHg 47%
12:00 +27°C° 0 mm 3 mps 749 mmHg 45%
13:00 +28°C° 0 mm 3 mps 749 mmHg 43%
14:00 +28°C° 0 mm 3 mps 749 mmHg 41%
15:00 +28°C° 0 mm 3 mps 749 mmHg 45%
16:00 +27°C° 0 mm 3 mps 749 mmHg 48%
17:00 +27°C° 0 mm 3 mps 749 mmHg 52%
18:00 +25°C° 0 mm 3 mps 749 mmHg 58%
19:00 +22°C° 0 mm 3 mps 749 mmHg 63%
20:00 +20°C° 0 mm 2 mps 749 mmHg 69%
21:00 +19°C° 0 mm 2 mps 749 mmHg 71%
22:00 +19°C° 0 mm 2 mps 749 mmHg 73%
23:00 +18°C° 0 mm 2 mps 749 mmHg 75%

6 August, Thursday

Time Temperature Precipitation Wind Pressure Humidity
00:00 +18°C° 0 mm 2 mps 749 mmHg 78%
01:00 +17°C° 0 mm 2 mps 749 mmHg 80%
02:00 +17°C° 0 mm 2 mps 749 mmHg 82%
03:00 +17°C° 0 mm 2 mps 749 mmHg 83%
04:00 +16°C° 0 mm 3 mps 750 mmHg 85%
05:00 +16°C° 0 mm 3 mps 750 mmHg 86%
06:00 +18°C° 0 mm 3 mps 750 mmHg 80%
07:00 +20°C° 0 mm 3 mps 750 mmHg 74%
08:00 +22°C° 0 mm 4 mps 750 mmHg 67%
09:00 +25°C° 0 mm 4 mps 750 mmHg 62%
10:00 +26°C° 0 mm 4 mps 750 mmHg 57%
11:00 +28°C° 0 mm 4 mps 750 mmHg 52%
12:00 +28°C° 0 mm 4 mps 750 mmHg 51%
13:00 +29°C° 0 mm 4 mps 750 mmHg 50%
14:00 +29°C° 0 mm 4 mps 750 mmHg 49%
15:00 +29°C° 0 mm 4 mps 750 mmHg 51%
16:00 +28°C° 0 mm 4 mps 750 mmHg 54%
17:00 +28°C° 0 mm 4 mps 749 mmHg 57%
18:00 +26°C° 0 mm 3 mps 749 mmHg 63%
19:00 +24°C° 0 mm 3 mps 750 mmHg 69%
20:00 +21°C° 0 mm 3 mps 750 mmHg 76%
21:00 +21°C° 0 mm 3 mps 750 mmHg 77%
22:00 +20°C° 0 mm 3 mps 750 mmHg 79%
23:00 +19°C° 0 mm 3 mps 750 mmHg 81%

7 August, Friday

Time Temperature Precipitation Wind Pressure Humidity
00:00 +19°C° 0 mm 3 mps 750 mmHg 83%
01:00 +18°C° 0 mm 3 mps 750 mmHg 85%
02:00 +18°C° 0 mm 3 mps 750 mmHg 87%
03:00 +18°C° 0 mm 3 mps 750 mmHg 88%
04:00 +17°C° 0 mm 3 mps 750 mmHg 89%
05:00 +17°C° 0 mm 3 mps 750 mmHg 90%
06:00 +19°C° 0 mm 3 mps 750 mmHg 83%
07:00 +21°C° 0 mm 3 mps 750 mmHg 76%
08:00 +24°C° 0 mm 3 mps 750 mmHg 69%
09:00 +26°C° 0 mm 3 mps 750 mmHg 63%
10:00 +27°C° 0 mm 4 mps 750 mmHg 57%
11:00 +28°C° 0 mm 4 mps 750 mmHg 51%
12:00 +29°C° 0 mm 4 mps 749 mmHg 48%
13:00 +29°C° 0 mm 4 mps 749 mmHg 46%
14:00 +30°C° 0 mm 4 mps 749 mmHg 44%
15:00 +29°C° 0 mm 3 mps 749 mmHg 46%
16:00 +29°C° 0 mm 3 mps 748 mmHg 49%
17:00 +29°C° 0 mm 3 mps 748 mmHg 52%
18:00 +27°C° 0 mm 3 mps 748 mmHg 58%
19:00 +25°C° 0 mm 3 mps 748 mmHg 63%
20:00 +23°C° 0 mm 2 mps 748 mmHg 69%
21:00 +21°C° 0 mm 2 mps 748 mmHg 72%
22:00 +20°C° 0 mm 2 mps 748 mmHg 74%
23:00 +20°C° 0 mm 2 mps 748 mmHg 77%

8 August, Saturday

Time Temperature Precipitation Wind Pressure Humidity
00:00 +19°C° 0 mm 2 mps 747 mmHg 82%
01:00 +19°C° 0 mm 2 mps 747 mmHg 86%
02:00 +18°C° 0 mm 2 mps 747 mmHg 91%
03:00 +18°C° 0 mm 2 mps 747 mmHg 93%
04:00 +18°C° 0 mm 2 mps 747 mmHg 94%
05:00 +18°C° 0 mm 2 mps 747 mmHg 96%
06:00 +20°C° 0 mm 3 mps 747 mmHg 89%
07:00 +21°C° 0 mm 3 mps 747 mmHg 82%
08:00 +24°C° 0 mm 3 mps 747 mmHg 75%
09:00 +25°C° 0.2 mm 4 mps 747 mmHg 69%
10:00 +27°C° 0.2 mm 4 mps 747 mmHg 64%
11:00 +28°C° 0.2 mm 4 mps 746 mmHg 58%
12:00 +28°C° 0.6 mm 5 mps 746 mmHg 59%
13:00 +28°C° 0.6 mm 5 mps 746 mmHg 60%
14:00 +28°C° 0.6 mm 5 mps 746 mmHg 61%
15:00 +27°C° 0.3 mm 5 mps 745 mmHg 62%
16:00 +27°C° 0.3 mm 5 mps 745 mmHg 63%
17:00 +27°C° 0.3 mm 5 mps 745 mmHg 64%
18:00 +25°C° 0 mm 4 mps 745 mmHg 69%
19:00 +22°C° 0 mm 4 mps 745 mmHg 74%
20:00 +21°C° 0 mm 4 mps 745 mmHg 79%
21:00 +20°C° 0 mm 4 mps 745 mmHg 81%
22:00 +19°C° 0 mm 4 mps 745 mmHg 83%
23:00 +19°C° 0 mm 4 mps 745 mmHg 85%
Show more